sat.trackr.live / text

‹ back to catalog

STARLINK-2453

NORAD 47845 · 2021-018BL

PAYLOAD ACTIVE UNKNOWN

§ Identity

Operator
Country
US
Launch date
2021-03-11
Launch site
AFETR
Launch vehicle
Mass (kg)
RCS (m²)

Purposes: comms

External: N2YO · Heavens-Above · Gunter

§ Orbital elements

Epoch: 2026-09-12T23:49:48.846144Z

Period
94.01 min
Inclination
53.1593°
Eccentricity
0.0001316
Mean motion
15.31694711 rev/d
Perigee alt
469.9 km
Apogee alt
471.7 km
Semi-major
6,848.9 km
B*
2.6356e-5
RAAN
106.9612°
Arg perigee
84.8350°
Mean anomaly
275.2801°
Rev number
30,519

§ Raw data

STARLINK-24531 47845U 21018BL  26255.99292646  .00000453  00000+0  26356-4 0  99942 47845  53.1593 106.9612 0001316  84.8350 275.2801 15.31694711305191

JSON: /api/v1/satellites/47845 · /tle

For live sub-satellite position, see the globe view (requires WebGL).

§ Visibility from observer

Set your observer location to see the next 7 days of passes ≥ 10°. The values pass through the URL so the page stays shareable.

No JS? Fill the form by hand. The geolocation button needs JavaScript.